Location: Burera
(21.3780°N, 81.9534°E)
Time: 11:05:40
(UTC+00:00)

GPS 2-12 Rocket1 - Pass Details

Date: 13 August 2020
Orbit: 586 x 652 km, 20.0° (Epoch: 21 September)

Event Time Altitude Azimuth Distance (km) Brightness Sun altitude
Exits shadow 22:47:27 38° 221° (SW) 962 3.6 -19.0°
Maximum altitude 22:48:51 53° 169° (S) 781 3.4 -18.7°
Drops below altitude 10° 22:53:31 10° 93° (E) 2,032 6.7 -17.7°
Sets 22:55:57 0° 88° (E) 2,947 7.8 -17.1°
